Poughkeepsie, NY

9:00 AM EDT on April 22, 2018 (GMT -0400)
Dutchess County

Weather History for KPOU - February, 2012

Change the Weather History Date:

Friday, February 3, 2012

  Actual Average Record
Temperature  
Mean Temperature 33 °F 26 °F  
Max Temperature 44 °F 37 °F 63 °F (2016)
Min Temperature 21 °F 16 °F -15 °F (1961)
Degree Days  
Heating Degree Days 32 38  
Month to date heating degree days 78 116  
Since 1 July heating degree days 2918 3668  
Cooling Degree Days 0 0  
Month to date cooling degree days 0 0  
Year to date cooling degree days 0 0  
Moisture  
Dew Point 17 °F    
Average Humidity 51    
Maximum Humidity 68    
Minimum Humidity 33    
Precipitation  
Precipitation 0.00 in 0.09 in 1.83 in (1982)
Month to date precipitation T 0.28  
Year to date precipitation 2.14 3.36  
Sea Level Pressure  
Sea Level Pressure 30.36 in    
Wind  
Wind Speed 4 mph (NNW)    
Max Wind Speed 12 mph    
Max Gust Speed 16 mph    
Visibility 10 miles    
Events      
T = Trace of Precipitation, MM = Missing Value Source: NWS Daily Summary

Daily Weather History Graph

Daily Weather History Graph

Search for Another Location

Airport or City:

Astronomy

Feb. 03, 2012 Rise Set
Actual Time 7:05 AM EST 5:13 PM EST
Civil Twilight 6:36 AM EST 5:42 PM EST
Nautical Twilight 6:03 AM EST 6:15 PM EST
Astronomical Twilight 5:31 AM EST 6:48 PM EST
Moon 1:10 PM EST (2/3) 3:41 AM EST (2/3)
Length of Visible Light 11h 05m
Length of Day
10h 07m
Waxing Gibbous, 81% of the Moon is Illuminated
Feb 3
Waxing Gibbous
Feb 7
Full
Feb 14
Last Quarter
Feb 21
New
Feb 29
First Quarter

Hourly Weather History & Observations

Time (EST) Temp. Windchill Dew Point Humidity Pressure Visibility Wind Dir Wind Speed Gust Speed Precip Events Conditions
12:53 AM 32.0 °F 24.2 °F 19.0 °F 59% 30.27 in 10.0 mi NNW 9.2 mph - N/A   Scattered Clouds
1:53 AM 30.9 °F 24.3 °F 19.0 °F 61% 30.29 in 10.0 mi North 6.9 mph - N/A   Mostly Cloudy
2:53 AM 28.9 °F 21.1 °F 17.1 °F 61% 30.30 in 10.0 mi North 8.1 mph - N/A   Clear
3:53 AM 28.0 °F 20.8 °F 16.0 °F 61% 30.33 in 10.0 mi NNW 6.9 mph - N/A   Clear
4:53 AM 26.1 °F - 16.0 °F 66% 30.36 in 10.0 mi Calm Calm - N/A   Clear
5:53 AM 25.0 °F - 15.1 °F 66% 30.39 in 10.0 mi Calm Calm - N/A   Clear
6:53 AM 24.1 °F - 16.0 °F 71% 30.41 in 10.0 mi Calm Calm - N/A   Clear
7:53 AM 25.0 °F - 16.0 °F 69% 30.44 in 10.0 mi Calm Calm - N/A   Clear
8:53 AM 28.0 °F 22.8 °F 16.0 °F 61% 30.46 in 10.0 mi NNE 4.6 mph - N/A   Clear
9:53 AM 30.9 °F 25.2 °F 16.0 °F 54% 30.45 in 10.0 mi North 5.8 mph - N/A   Clear
10:53 AM 34.0 °F 29.8 °F 16.0 °F 48% 30.44 in 10.0 mi Variable 4.6 mph - N/A   Clear
11:53 AM 37.0 °F 33.3 °F 16.0 °F 42% 30.40 in 10.0 mi NNW 4.6 mph - N/A   Clear
12:53 PM 39.9 °F 35.1 °F 16.0 °F 38% 30.37 in 10.0 mi NNW 6.9 mph - N/A   Clear
1:53 PM 43.0 °F 40.3 °F 16.0 °F 34% 30.35 in 10.0 mi Variable 4.6 mph - N/A   Clear
2:53 PM 43.0 °F 38.2 °F 16.0 °F 34% 30.34 in 10.0 mi NNW 8.1 mph - N/A   Clear
3:53 PM 43.0 °F 41.3 °F 16.0 °F 34% 30.34 in 10.0 mi Variable 3.5 mph - N/A   Clear
4:53 PM 39.9 °F 35.8 °F 16.0 °F 38% 30.35 in 10.0 mi NNE 5.8 mph - N/A   Clear
5:53 PM 39.0 °F 36.8 °F 16.0 °F 39% 30.38 in 10.0 mi WNW 3.5 mph - N/A   Clear
6:53 PM 37.0 °F - 18.0 °F 46% 30.37 in 10.0 mi Calm Calm - N/A   Clear
7:53 PM 30.9 °F - 19.9 °F 64% 30.35 in 10.0 mi Calm Calm - N/A   Scattered Clouds
8:53 PM 32.0 °F - 21.0 °F 64% 30.36 in 10.0 mi Calm Calm - N/A   Overcast
9:53 PM 35.1 °F 31.0 °F 21.9 °F 59% 30.34 in 10.0 mi SW 4.6 mph - N/A   Overcast
10:53 PM 36.0 °F 30.3 °F 21.0 °F 55% 30.32 in 10.0 mi WSW 6.9 mph - N/A   Overcast
11:53 PM 37.9 °F 33.5 °F 19.9 °F 48% 30.31 in 10.0 mi SW 5.8 mph - N/A   Overcast